www.pogodaiklimat.ru

Погода и климат >> Архив погоды >> Россия >> Хабаровский край >> Георгиевка


ПОГОДА в Георгиевке

  • Прогноз погоды в Георгиевке
  • Монитор погоды в Георгиевке

АРХИВ ПОГОДЫ в Георгиевке

Время (UTC), дата Ветер
(напр.,м/с)
 
Видим.   Явления Облачность Т
(С)
Тd
(С)
f
(%)
Тe
(С)
Тes
(С)
Комфортность P
(гПа)
Po
(гПа)
Тmin
(С)
Tmax
(С)
R
(мм)
R24
(мм)
S
(см)
00 16.04 Ю 2 20 км ясно +14.3 -4.9 26 +14 +23 1005.6 997.3
03 16.04 Ю 4 20 км ясно +19.3 -4.9 19 +19 +29 1002.8 994.7
06 16.04 Ю 4 20 км 4/3 600 м
[Cu hum]
+21.7 -7.0 14 +20 +24 1000.1 992.0
09 16.04 Ю 3 20 км 8/0
[Ac lent Ci]
+19.3 -3.6 21 +19 +20 998.8 990.7 +22.1
12 16.04 Ю 2 10 км 10/8 600 м
[Sc Cs]
+16.4 -2.6 27 +17 +17 998.9 990.7
15 16.04 ЮЗ 1 10 км 10/0
[Cs]
+13.1 -0.5 39 +14 +14 1000.3 992.0
18 16.04 ЮЗ 2 10 км 10/6 600 м
[Sc Cs]
+9.7 +0.6 53 +9 +9 1003.1 994.7
21 16.04 Ю 1 20 км 10/3 600 м
[Sc Cs]
+6.0 -4.2 48 +6 +6 1005.9 997.3 +4.4
00 17.04 З 1 20 км 10/5 600 м
[Sc Cs]
+10.8 -6.1 30 +11 +11 1005.7 997.3
03 17.04 ЮЗ 2 20 км 10/4 600 м
[Sc Cs]
+16.4 -6.6 20 +17 +17 1004.2 996.0
06 17.04 Ю 1 20 км 10/0
[Cs]
+19.7 -2.0 23 +21 +21 комфорт 1001.4 993.3
09 17.04 СВ 2 20 км 10/0
[As op]
+16.8 -0.9 30 +17 +17 1000.2 992.0 +20.1
12 17.04 СВ 3 10 км 8/0
[Ci]
+10.3 -3.0 39 +9 +9 999.1 990.7
15 17.04 В 1 10 км 10/0
[Cs]
+7.1 -2.4 51 +7 +7 997.8 989.3
18 17.04 В 1 10 км 10/5 600 м
[Sc Cs]
+6.0 -1.6 58 +5 +5 995.2 986.7
21 17.04 Ю 2 20 км 10/3 600 м
[Sc As op]
+14.3 -6.0 24 +14 +14 994.9 986.7 +3.8
00 18.04 Ю 3 20 км 10/10 600 м
[Cb cap]
+15.2 -5.2 24 +15 +15 994.9 986.7
03 18.04 З 7-12
{14}
20 км 9/9 600 м
[Cb cap]
+9.8 +1.2 55 +6 +7 997.7 989.3
06 18.04 З 5-12
{14}
20 км 10/10 600 м
[Cb cap]
+7.3 -1.1 55 +4 +4 1000.5 992.0
09 18.04 ЮЗ 5-12
{12}
20 км 10/10 600 м
[Cb cap]
+3.0 -4.0 60 -2 -2 1003.3 994.7 +15.8
12 18.04 ЮЗ 4-10
{12}
10 км 10/10 600 м
[Cb cap]
+0.5 -4.9 67 -4 -4 1004.3 995.6
15 18.04 ЮЗ 3
{14}
10 км слаб. ливневой снег 10/10 600 м
[Cb cap]
-0.8 -1.4 96 -6 -6 1003.7 994.9
18 18.04 ЮЗ 3 10 км слаб. ливневой снег 10/10 600 м
[Cb cap]
-1.5 -2.0 96 -7 -7 1004.1 995.3
21 18.04 З 2
{11}
10 км слаб. снег 10/0
[As op]
-1.8 -4.2 84 -6 -6 1004.8 996.0 -1.8 2 3
00 19.04 ЮЗ 3
{10}
10 км слаб. снег 10/0
[As op]
-0.8 -3.2 84 -6 -4 1006.0 997.3 -2.2
03 19.04 ЮЗ 4 10 км слаб. снег 10/8 600 м
[Sc As op]
+0.5 -1.6 86 -5 -5 1008.8 1000.0
06 19.04 З 3 10 км слаб. ливневой снег 10/8 600 м
[Cb cap As op]
+1.7 +0.2 90 -3 -3 1010.0 1001.3
09 19.04 З 4
{11}
20 км {ливн. осадки} 9/8 600 м
[Sc Ac lent]
+3.2 -2.7 65 -1 -1 1011.4 1002.7 +3.4 3
12 19.04 З 1 10 км {ливн. осадки} 8/8 600 м
[Sc]
+1.2 -2.9 74 -0 -0 1011.0 1002.2
15 19.04 ЮЗ 1 10 км 9/8 600 м
[Sc Ac trans]
-1.5 -1.6 99 -4 -4 1012.9 1004.0
18 19.04 штиль 0 10 км 3/0
[Ac lent]
-2.9 -3.0 99 -4 -4 1014.2 1005.3
21 19.04 штиль 0 20 км ясно -2.4 -3.0 96 -4 -3 1013.2 1004.4 -4.8
00 20.04 ЮВ 1 20 км ясно +3.1 -2.8 65 +2 +12 опасность
простуды
1014.0 1005.3
03 20.04 ЮЗ 2 20 км 8/8 600 м
[Cb calv]
+7.5 -3.7 45 +6 +11 1012.6 1004.0
06 20.04 В 2 20 км 4/3 600 м
[Cu med, cong Ci ing]
+9.7 -4.6 36 +9 +14 1009.8 1001.3
09 20.04 СВ 1 20 км 4/1 600 м
[Cb calv Ci ing]
+9.5 -3.8 39 +10 +10 1007.2 998.7 +10.3
12 20.04 СВ 1 10 км 8/5 600 м
[Cb cap Ac lent]
+4.9 -2.7 58 +4 +4 1008.6 1000.0
15 20.04 СЗ 1 10 км 10 баллов +3.2 -2.3 67 +2 +2 1007.4 998.7
18 20.04 В 2 10 км 10 баллов +4.6 -3.2 57 +2 +2 1004.6 996.0
21 20.04 В 1 20 км 3/1 600 м
[Cb calv Ac cast]
+0.7 -2.9 77 -1 -0 1005.4 996.7 +0.6
00 21.04 З 4 20 км ясно +8.5 -1.6 49 +6 +12 1007.2 998.7
03 21.04 З 6 20 км 6 баллов +11.7 -5.7 29 +9 +12 1008.4 1000.0
06 21.04 З 8-13
{14}
20 км 4/4 600 м
[Cu hum]
+11.7 -11.2 19 +9 +10 1009.7 1001.3
09 21.04 З 4
{13}
20 км 1/0
[Ci sp]
+10.1 -11.8 20 +8 +9 1011.2 1002.7 +12.5
12 21.04 штиль 0 10 км ясно +1.0 -7.7 52 +1 +1 1012.8 1004.0
15 21.04 штиль 0 10 км ясно -1.3 -9.4 54 -2 -2 1014.2 1005.3
18 21.04 штиль 0 10 км ясно -4.5 -7.3 81 -5 -5 1015.7 1006.7
21 21.04 З 1 20 км ясно -2.8 -6.5 76 -5 -4 1015.6 1006.7 -5.6
00 22.04 З 3 20 км ясно +7.7 -6.4 36 +6 +13 1017.9 1009.3
03 22.04 ЮЗ 5-10
{13}
20 км 3/3 600 м
[Cu hum]
+12.3 -9.7 21 +11 +16 1015.5 1007.0
06 22.04 З 4-11
{12}
20 км 4/4 600 м
[Cu hum]
+13.6 -9.6 19 +13 +16 1015.1 1006.7
09 22.04 ЮЗ 1
{11}
20 км 3/0
[Ci]
+12.7 -8.5 22 +13 +14 1015.1 1006.7 +14.2
12 22.04 В 1 10 км 6 баллов +4.5 -5.6 48 +4 +4 1015.4 1006.7
15 22.04 СВ 1 10 км 7 баллов +2.8 -5.6 54 +2 +2 1014.0 1005.3

 

Местоположение метеостанции Георгиевка (Хабаровский край, Россия): широта 47.95 долгота 135.20 высота над уровнем моря 70 м.

В архиве по умолчанию представлена погода в Георгиевке за последнюю неделю. Архивные данные за месяц целиком и за предыдущие месяцы, начиная с января 2011 года, Вы можете получить, выбрав интересующий диапазон дат из раскрывающегося списка и нажав кнопку "Ввод!".


*Определитесь, кто Вы:
робот инопланетянин человек

Внимание! Время в таблицах - всемирное. Для получения местного времени необходимо прибавить поправку, которая равна 10 ч.

Смотрите также архив погоды в соседних городах и на ближайших метеорологических станциях:

Погода в Хоре (Хабаровский край, Россия) (21 км)
Погода в Оборе (Хабаровский край, Россия) (34 км)
Погода в Бичевой (Хабаровский край, Россия) (36 км)
Погода в Бычихе (Хабаровский край, Россия) (48 км)
Погода в Хабаровске Аэр. Большой (Хабаровский край, Россия) (56 км)
Погода в Хабаровске 21 км (Хабаровский край, Россия) (59 км)
Погода в Вяземском (Хабаровский край, Россия) (61 км)
Погода в Князе-Волконском (Хабаровский край, Россия) (62 км)
Погода в Хабаровске АМС (Хабаровский край, Россия) (62 км)
Погода в Хабаровске (Хабаровский край, Россия) (64 км)

Пояснения к столбцам:

Ветер - указаны скорость ветра в м/с - средняя за 10 мин, порывы в срок и между сроками (в фигурных скобках) и направление, откуда дует ветер: С - северный, СВ - северо-восточный, В - восточный, ЮВ - юго-восточный, Ю - южный, ЮЗ - юго-западный, З - западный, СЗ - северо-западный.
Видимость - горизонтальная дальность видимости в метрах или километрах. При видимости от 1 до 10 км при отсутствии осадков обычно наблюдается дымка, при ухудшении видимости до 1 км и менее - туман. В сухую погоду видимость может ухудшаться дымом, пылью или мглою.
Явления - указаны атмосферные явления, наблюдавшиеся в срок или в последний час перед сроком; фигурными скобками обозначены явления, наблюдавшиеся между сроками (за 1-3 часа до срока); квадратными скобками обозначены град или гололедные отложения с указанием их диаметра в мм.
Облачность - указаны через наклонную черту общая и нижняя облачность в баллах и высота нижней границы облаков в метрах; квадратными скобками обозначены формы облаков: Ci - перистые, Cs - перисто-слоистые, Cc - перисто-кучевые, Ac - высококучевые, As - высокослоистые, Sc - слоисто-кучевые, Ns - слоисто-дождевые, Cu - кучевые, Cb - кучево-дождевые. Подробнее классификацию облаков см. в Атласе облаков (PDF).
T - Температура воздуха - температура, измеренная на высоте 2 м над землей.
Td - Температура точки росы - температура, при понижении до которой содержащийся в воздухе водяной пар достигнет насыщения.
f - Относительная влажность воздуха - влажноcть воздуха, измеренная на высоте 2 м над землей.
Te - Эффективная температура - температура, которую ощущает одетый по сезону человек в тени. Характеристика душности погоды. При расчете учитывается влияние влажности воздуха и скорости ветра на теплоощущения человека.
Tes - Эффективная температура на солнце - температура, которую ощущает человек, с поправкой на солнечный нагрев. Характеристика знойности погоды. Зависит от высоты солнца над горизонтом, облачности и скорости ветра. Ночью, в пасмурную погоду, а также при ветре 12 м/с и более поправка равна нулю.
P - Атмосферное давление - приведенное к уровню моря атмосферное давление.
Po - Атмосферное давление - измеренное на уровне метеостанции атмосферное давление.
Tmin - Минимальная температура - минимум температуры воздуха на высоте 2 м над землей.
Tmax - Максимальная температура - максимум температуры воздуха на высоте 2 м над землей.
R - Количество осадков - Количество выпавших осадков за период времени, мм. При наведении курсора мыши на число - период времени, за который выпало указанное количество осадков.
R24 - Количество осадков - Количество выпавших осадков за 24 часа, мм.
S - Снежный покров - Высота снежного покрова, см. При наведении курсора мыши на число - состояние снежного покрова и степень покрытия местности в баллах.